Year,Month,Day,Hour,Minute,Value (Times are PST for temperature in C)
2010,10,25,00,00,8.00
2010,10,25,00,03,8.00
2010,10,25,00,04,8.00
2010,10,25,00,06,8.10
2010,10,25,00,07,8.10
2010,10,25,00,08,8.10
2010,10,25,00,09,8.10
2010,10,25,00,10,8.10
2010,10,25,00,11,8.10
2010,10,25,00,12,8.10
2010,10,25,00,13,8.10
2010,10,25,00,14,8.10
2010,10,25,00,15,8.10
2010,10,25,00,16,8.10
2010,10,25,00,17,8.10
2010,10,25,00,18,8.10
2010,10,25,00,22,8.10
2010,10,25,00,23,8.00
2010,10,25,00,24,8.10
2010,10,25,00,25,8.10
2010,10,25,00,26,8.10
2010,10,25,00,27,8.10
2010,10,25,00,28,8.10
2010,10,25,00,29,8.10
2010,10,25,00,30,8.10
2010,10,25,00,33,8.10
2010,10,25,00,34,8.10
2010,10,25,00,35,8.10
2010,10,25,00,36,8.10
2010,10,25,00,37,8.10
2010,10,25,00,38,8.10
2010,10,25,00,39,8.10
2010,10,25,00,40,8.10
2010,10,25,00,41,8.10
2010,10,25,00,42,8.10
2010,10,25,00,43,8.10
2010,10,25,00,44,8.10
2010,10,25,00,45,8.10
2010,10,25,00,46,8.10
2010,10,25,00,47,8.10
2010,10,25,00,48,8.10
2010,10,25,00,49,8.10
2010,10,25,00,50,8.10
2010,10,25,00,51,8.10
2010,10,25,00,52,8.10
2010,10,25,00,53,8.10
2010,10,25,00,54,8.10
2010,10,25,00,55,8.10
2010,10,25,00,56,8.10
2010,10,25,00,57,8.10
2010,10,25,00,58,8.10
2010,10,25,00,59,8.10
2010,10,25,01,00,8.20
2010,10,25,01,03,8.10
2010,10,25,01,04,8.10
2010,10,25,01,07,8.10
2010,10,25,01,08,8.10
2010,10,25,01,09,8.10
2010,10,25,01,10,8.10
2010,10,25,01,11,8.10
2010,10,25,01,12,8.10
2010,10,25,01,13,8.10
2010,10,25,01,14,8.10
2010,10,25,01,15,8.10
2010,10,25,01,16,8.10
2010,10,25,01,17,8.10
2010,10,25,01,18,8.10
2010,10,25,01,23,8.10
2010,10,25,01,24,8.10
2010,10,25,01,26,8.10
2010,10,25,01,27,8.10
2010,10,25,01,28,8.10
2010,10,25,01,29,8.10
2010,10,25,01,30,8.10
2010,10,25,01,31,8.20
2010,10,25,01,32,8.10
2010,10,25,01,33,8.10
2010,10,25,01,34,8.10
2010,10,25,01,35,8.10
2010,10,25,01,36,8.10
2010,10,25,01,37,8.10
2010,10,25,01,38,8.10
2010,10,25,01,39,8.10
2010,10,25,01,40,8.10
2010,10,25,01,41,8.10
2010,10,25,01,42,8.10
2010,10,25,01,43,8.10
2010,10,25,01,45,8.10
2010,10,25,01,46,8.10
2010,10,25,01,47,8.10
2010,10,25,01,48,8.10
2010,10,25,01,49,8.10
2010,10,25,01,50,8.10
2010,10,25,01,52,8.10
2010,10,25,01,53,8.10
2010,10,25,01,54,8.10
2010,10,25,01,55,8.10
2010,10,25,01,56,8.10
2010,10,25,01,59,8.20
2010,10,25,02,00,8.10
2010,10,25,02,01,8.20
2010,10,25,02,03,8.20
2010,10,25,02,04,8.10
2010,10,25,02,05,8.10
2010,10,25,02,06,8.20
2010,10,25,02,07,8.20
2010,10,25,02,08,8.20
2010,10,25,02,09,8.20
2010,10,25,02,10,8.20
2010,10,25,02,11,8.20
2010,10,25,02,12,8.20
2010,10,25,02,13,8.20
2010,10,25,02,14,8.10
2010,10,25,02,15,8.20
2010,10,25,02,16,8.10
2010,10,25,02,17,8.20
2010,10,25,02,18,8.20
2010,10,25,02,19,8.20
2010,10,25,02,20,8.10
2010,10,25,02,21,8.20
2010,10,25,02,22,8.20
2010,10,25,02,23,8.20
2010,10,25,02,24,8.20
2010,10,25,02,25,8.20
2010,10,25,02,26,8.20
2010,10,25,02,27,8.20
2010,10,25,02,28,8.10
2010,10,25,02,29,8.10
2010,10,25,02,30,8.20
2010,10,25,02,31,8.20
2010,10,25,02,32,8.20
2010,10,25,02,33,8.20
2010,10,25,02,34,8.20
2010,10,25,02,35,8.20
2010,10,25,02,36,8.20
2010,10,25,02,39,8.20
2010,10,25,02,40,8.20
2010,10,25,02,41,8.20
2010,10,25,02,42,8.30
2010,10,25,02,43,8.30
2010,10,25,02,44,8.30
2010,10,25,02,45,8.30
2010,10,25,02,46,8.30
2010,10,25,02,47,8.30
2010,10,25,02,48,8.30
2010,10,25,02,49,8.30
2010,10,25,02,50,8.30
2010,10,25,02,51,8.30
2010,10,25,02,52,8.30
2010,10,25,02,53,8.30
2010,10,25,02,54,8.30
2010,10,25,02,55,8.30
2010,10,25,02,56,8.30
2010,10,25,02,57,8.30
2010,10,25,02,58,8.30
2010,10,25,02,59,8.30
2010,10,25,03,00,8.30
2010,10,25,03,01,8.30
2010,10,25,03,02,8.30
2010,10,25,03,03,8.30
2010,10,25,03,06,8.30
2010,10,25,03,07,8.30
2010,10,25,03,08,8.30
2010,10,25,03,09,8.30
2010,10,25,03,10,8.30
2010,10,25,03,11,8.30
2010,10,25,03,12,8.30
2010,10,25,03,13,8.30
2010,10,25,03,14,8.30
2010,10,25,03,15,8.30
2010,10,25,03,16,8.30
2010,10,25,03,17,8.30
2010,10,25,03,18,8.30
2010,10,25,03,20,8.30
2010,10,25,03,21,8.30
2010,10,25,03,22,8.30
2010,10,25,03,23,8.30
2010,10,25,03,24,8.30
2010,10,25,03,25,8.30
2010,10,25,03,26,8.30
2010,10,25,03,27,8.30
2010,10,25,03,28,8.30
2010,10,25,03,29,8.30
2010,10,25,03,30,8.30
2010,10,25,03,31,8.30
2010,10,25,03,34,8.30
2010,10,25,03,35,8.30
2010,10,25,03,36,8.30
2010,10,25,03,39,8.40
2010,10,25,03,40,8.40
2010,10,25,03,41,8.40
2010,10,25,03,42,8.40
2010,10,25,03,43,8.40
2010,10,25,03,44,8.40
2010,10,25,03,45,8.40
2010,10,25,03,46,8.40
2010,10,25,03,47,8.40
2010,10,25,03,48,8.40
2010,10,25,03,49,8.40
2010,10,25,03,52,8.40
2010,10,25,03,53,8.40
2010,10,25,03,54,8.40
2010,10,25,03,55,8.40
2010,10,25,03,56,8.40
2010,10,25,03,57,8.40
2010,10,25,03,58,8.40
2010,10,25,03,59,8.40
2010,10,25,04,00,8.40
2010,10,25,04,01,8.40
2010,10,25,04,02,8.40
2010,10,25,04,04,8.40
2010,10,25,04,05,8.40
2010,10,25,04,07,8.40
2010,10,25,04,08,8.40
2010,10,25,04,09,8.40
2010,10,25,04,10,8.40
2010,10,25,04,11,8.40
2010,10,25,04,12,8.40
2010,10,25,04,13,8.40
2010,10,25,04,14,8.40
2010,10,25,04,15,8.40
2010,10,25,04,16,8.40
2010,10,25,04,17,8.40
2010,10,25,04,18,8.40
2010,10,25,04,19,8.40
2010,10,25,04,20,8.40
2010,10,25,04,21,8.40
2010,10,25,04,22,8.40
2010,10,25,04,23,8.40
2010,10,25,04,24,8.40
2010,10,25,04,25,8.40
2010,10,25,04,26,8.40
2010,10,25,04,27,8.40
2010,10,25,04,29,8.40
2010,10,25,04,30,8.40
2010,10,25,04,33,8.50
2010,10,25,04,34,8.50
2010,10,25,04,35,8.50
2010,10,25,04,36,8.50
2010,10,25,04,37,8.50
2010,10,25,04,38,8.50
2010,10,25,04,39,8.50
2010,10,25,04,40,8.50
2010,10,25,04,41,8.50
2010,10,25,04,42,8.50
2010,10,25,04,43,8.50
2010,10,25,04,44,8.50
2010,10,25,04,45,8.50
2010,10,25,04,46,8.50
2010,10,25,04,47,8.50
2010,10,25,04,48,8.60
2010,10,25,04,49,8.60
2010,10,25,04,50,8.60
2010,10,25,04,51,8.60
2010,10,25,04,52,8.60
2010,10,25,04,53,8.60
2010,10,25,04,54,8.60
2010,10,25,04,55,8.60
2010,10,25,04,56,8.70
2010,10,25,04,57,8.70
2010,10,25,04,58,8.70
2010,10,25,04,59,8.70
2010,10,25,05,04,8.70
2010,10,25,05,05,8.70
2010,10,25,05,06,8.70
2010,10,25,05,07,8.80
2010,10,25,05,12,8.80
2010,10,25,05,13,8.80
2010,10,25,05,14,8.80
2010,10,25,05,15,8.80
2010,10,25,05,16,8.80
2010,10,25,05,17,8.80
2010,10,25,05,18,8.80
2010,10,25,05,19,8.80
2010,10,25,05,20,8.80
2010,10,25,05,21,8.80
2010,10,25,05,22,8.80
2010,10,25,05,23,8.80
2010,10,25,05,24,8.90
2010,10,25,05,25,8.90
2010,10,25,05,26,8.90
2010,10,25,05,27,8.90
2010,10,25,05,28,8.90
2010,10,25,05,29,8.90
2010,10,25,05,30,8.90
2010,10,25,05,31,8.90
2010,10,25,05,32,9.00
2010,10,25,05,34,9.00
2010,10,25,05,35,9.00
2010,10,25,05,36,9.00
2010,10,25,05,37,9.00
2010,10,25,05,40,9.10
2010,10,25,05,41,9.10
2010,10,25,05,42,9.10
2010,10,25,05,43,9.10
2010,10,25,05,44,9.10
2010,10,25,05,45,9.10
2010,10,25,05,46,9.10
2010,10,25,05,47,9.10
2010,10,25,05,48,9.10
2010,10,25,05,49,9.10
2010,10,25,05,50,9.10
2010,10,25,05,51,9.20
2010,10,25,05,52,9.20
2010,10,25,05,53,9.20
2010,10,25,05,54,9.20
2010,10,25,05,55,9.20
2010,10,25,05,56,9.10
2010,10,25,05,57,9.10
2010,10,25,05,58,9.10
2010,10,25,05,59,9.10
2010,10,25,06,00,9.10
2010,10,25,06,01,9.10
2010,10,25,06,02,9.10
2010,10,25,06,03,9.10
2010,10,25,06,04,9.10
2010,10,25,06,05,9.10
2010,10,25,06,07,9.10
2010,10,25,06,08,9.10
2010,10,25,06,09,9.10
2010,10,25,06,10,9.10
2010,10,25,06,11,9.10
2010,10,25,06,12,9.10
2010,10,25,06,13,9.10
2010,10,25,06,14,9.10
2010,10,25,06,15,9.10
2010,10,25,06,16,9.10
2010,10,25,06,17,9.10
2010,10,25,06,18,9.10
2010,10,25,06,19,9.10
2010,10,25,06,20,9.10
2010,10,25,06,21,9.10
2010,10,25,06,22,9.10
2010,10,25,06,23,9.10
2010,10,25,06,24,9.10
2010,10,25,06,25,9.10
2010,10,25,06,26,9.10
2010,10,25,06,27,9.10
2010,10,25,06,28,9.10
2010,10,25,06,29,9.10
2010,10,25,06,30,9.10
2010,10,25,06,31,9.10
2010,10,25,06,32,9.10
2010,10,25,06,33,9.10
2010,10,25,06,34,9.10
2010,10,25,06,35,9.10
2010,10,25,06,36,9.10
2010,10,25,06,37,9.10
2010,10,25,06,38,9.10
2010,10,25,06,39,9.10
2010,10,25,06,40,9.10
2010,10,25,06,41,9.10
2010,10,25,06,42,9.10
2010,10,25,06,43,9.10
2010,10,25,06,44,9.10
2010,10,25,06,45,9.10
2010,10,25,06,46,9.10
2010,10,25,06,47,9.10
2010,10,25,06,48,9.10
2010,10,25,06,49,9.10
2010,10,25,06,50,9.10
2010,10,25,06,53,9.10
2010,10,25,06,54,9.10
2010,10,25,06,55,9.10
2010,10,25,06,56,9.10
2010,10,25,06,57,9.10
2010,10,25,06,58,9.10
2010,10,25,06,59,9.10
2010,10,25,07,00,9.20
2010,10,25,07,01,9.10
2010,10,25,07,02,9.10
2010,10,25,07,03,9.10
2010,10,25,07,04,9.10
2010,10,25,07,05,9.10
2010,10,25,07,06,9.10
2010,10,25,07,07,9.10
2010,10,25,07,08,9.10
2010,10,25,07,09,9.10
2010,10,25,07,10,9.10
2010,10,25,07,11,9.10
2010,10,25,07,12,9.10
2010,10,25,07,13,9.10
2010,10,25,07,14,9.10
2010,10,25,07,15,9.10
2010,10,25,07,16,9.10
2010,10,25,07,17,9.10
2010,10,25,07,19,9.10
2010,10,25,07,20,9.10
2010,10,25,07,21,9.10
2010,10,25,07,22,9.20
2010,10,25,07,23,9.20
2010,10,25,07,24,9.20
2010,10,25,07,25,9.20
2010,10,25,07,26,9.20
2010,10,25,07,27,9.20
2010,10,25,07,28,9.20
2010,10,25,07,29,9.30
2010,10,25,07,30,9.30
2010,10,25,07,31,9.30
2010,10,25,07,32,9.30
2010,10,25,07,33,9.30
2010,10,25,07,34,9.30
2010,10,25,07,35,9.30
2010,10,25,07,36,9.30
2010,10,25,07,37,9.30
2010,10,25,07,38,9.30
2010,10,25,07,39,9.30
2010,10,25,07,40,9.30
2010,10,25,07,41,9.30
2010,10,25,07,42,9.30
2010,10,25,07,43,9.30
2010,10,25,07,44,9.30
2010,10,25,07,45,9.30
2010,10,25,07,46,9.40
2010,10,25,07,47,9.40
2010,10,25,07,48,9.40
2010,10,25,07,49,9.40
2010,10,25,07,50,9.40
2010,10,25,07,51,9.40
2010,10,25,07,52,9.40
2010,10,25,07,53,9.40
2010,10,25,07,54,9.40
2010,10,25,07,55,9.40
2010,10,25,07,56,9.40
2010,10,25,07,57,9.50
2010,10,25,07,58,9.50
2010,10,25,07,59,9.50
2010,10,25,08,00,9.50
2010,10,25,08,01,9.60
2010,10,25,08,04,9.70
2010,10,25,08,05,9.70
2010,10,25,08,06,9.70
2010,10,25,08,07,9.70
2010,10,25,08,08,9.60
2010,10,25,08,09,9.60
2010,10,25,08,10,9.60
2010,10,25,08,11,9.60
2010,10,25,08,12,9.60
2010,10,25,08,13,9.60
2010,10,25,08,14,9.60
2010,10,25,08,15,9.60
2010,10,25,08,16,9.60
2010,10,25,08,17,9.60
2010,10,25,08,18,9.60
2010,10,25,08,19,9.60
2010,10,25,08,20,9.70
2010,10,25,08,21,9.70
2010,10,25,08,22,9.70
2010,10,25,08,23,9.80
2010,10,25,08,24,9.80
2010,10,25,08,25,9.80
2010,10,25,08,26,9.80
2010,10,25,08,27,9.90
2010,10,25,08,28,9.90
2010,10,25,08,29,9.90
2010,10,25,08,30,9.90
2010,10,25,08,31,10.00
2010,10,25,08,32,10.00
2010,10,25,08,33,10.00
2010,10,25,08,34,10.00
2010,10,25,08,35,10.10
2010,10,25,08,36,10.10
2010,10,25,08,37,10.10
2010,10,25,08,38,10.20
2010,10,25,08,39,10.20
2010,10,25,08,40,10.20
2010,10,25,08,41,10.30
2010,10,25,08,42,10.30
2010,10,25,08,43,10.30
2010,10,25,08,44,10.30
2010,10,25,08,45,10.30
2010,10,25,08,46,10.40
2010,10,25,08,47,10.40
2010,10,25,08,48,10.50
2010,10,25,08,49,10.60
2010,10,25,08,50,10.60
2010,10,25,08,51,10.60
2010,10,25,08,52,10.60
2010,10,25,08,53,10.70
2010,10,25,08,54,10.70
2010,10,25,08,55,10.70
2010,10,25,08,56,10.70
2010,10,25,08,57,10.80
2010,10,25,08,58,10.80
2010,10,25,08,59,10.80
2010,10,25,09,00,10.90
2010,10,25,09,01,10.90
2010,10,25,09,02,10.90
2010,10,25,09,03,10.90
2010,10,25,09,04,10.90
2010,10,25,09,05,10.90
2010,10,25,09,06,11.00
2010,10,25,09,07,11.00
2010,10,25,09,08,11.00
2010,10,25,09,09,11.00
2010,10,25,09,10,11.10
2010,10,25,09,11,11.10
2010,10,25,09,12,11.10
2010,10,25,09,13,11.10
2010,10,25,09,14,11.10
2010,10,25,09,15,11.20
2010,10,25,09,18,11.20
2010,10,25,09,19,11.20
2010,10,25,09,20,11.20
2010,10,25,09,21,11.20
2010,10,25,09,22,11.20
2010,10,25,09,23,11.20
2010,10,25,09,24,11.20
2010,10,25,09,25,11.20
2010,10,25,09,26,11.20
2010,10,25,09,27,11.20
2010,10,25,09,28,11.20
2010,10,25,09,29,11.20
2010,10,25,09,30,11.20
2010,10,25,09,31,11.20
2010,10,25,09,32,11.20
2010,10,25,09,33,11.20
2010,10,25,09,34,11.20
2010,10,25,09,35,11.30
2010,10,25,09,36,11.30
2010,10,25,09,37,11.30
2010,10,25,09,38,11.30
2010,10,25,09,39,11.30
2010,10,25,09,40,11.30
2010,10,25,09,41,11.30
2010,10,25,09,42,11.30
2010,10,25,09,43,11.30
2010,10,25,09,44,11.30
2010,10,25,09,45,11.30
2010,10,25,09,46,11.30
2010,10,25,09,47,11.30
2010,10,25,09,48,11.30
2010,10,25,09,49,11.30
2010,10,25,09,50,11.30
2010,10,25,09,51,11.30
2010,10,25,09,52,11.40
2010,10,25,09,53,11.40
2010,10,25,09,54,11.40
2010,10,25,09,55,11.40
2010,10,25,09,56,11.40
2010,10,25,09,57,11.40
2010,10,25,09,58,11.40
2010,10,25,09,59,11.40
2010,10,25,10,00,11.40
2010,10,25,10,01,11.40
2010,10,25,10,02,11.40
2010,10,25,10,03,11.40
2010,10,25,10,04,11.40
2010,10,25,10,05,11.40
2010,10,25,10,06,11.40
2010,10,25,10,07,11.40
2010,10,25,10,08,11.40
2010,10,25,10,09,11.50
2010,10,25,10,10,11.50
2010,10,25,10,11,11.50
2010,10,25,10,12,11.50
2010,10,25,10,13,11.50
2010,10,25,10,14,11.50
2010,10,25,10,15,11.50
2010,10,25,10,16,11.50
2010,10,25,10,17,11.50
2010,10,25,10,18,11.50
2010,10,25,10,19,11.50
2010,10,25,10,20,11.50
2010,10,25,10,21,11.50
2010,10,25,10,22,11.50
2010,10,25,10,23,11.40
2010,10,25,10,24,11.40
2010,10,25,10,25,11.40
2010,10,25,10,26,11.40
2010,10,25,10,27,11.40
2010,10,25,10,28,11.40
2010,10,25,10,29,11.40
2010,10,25,10,30,11.50
2010,10,25,10,31,11.50
2010,10,25,10,32,11.50
2010,10,25,10,33,11.50
2010,10,25,10,34,11.50
2010,10,25,10,35,11.50
2010,10,25,10,36,11.50
2010,10,25,10,37,11.50
2010,10,25,10,38,11.50
2010,10,25,10,39,11.50
2010,10,25,10,40,11.40
2010,10,25,10,41,11.40
2010,10,25,10,42,11.40
2010,10,25,10,43,11.40
2010,10,25,10,44,11.40
2010,10,25,10,45,11.40
2010,10,25,10,46,11.40
2010,10,25,10,47,11.50
2010,10,25,10,48,11.50
2010,10,25,10,49,11.50
2010,10,25,10,50,11.50
2010,10,25,10,51,11.50
2010,10,25,10,52,11.50
2010,10,25,10,53,11.50
2010,10,25,10,54,11.40
2010,10,25,10,55,11.40
2010,10,25,10,56,11.40
2010,10,25,10,57,11.40
2010,10,25,10,58,11.40
2010,10,25,10,59,11.40
2010,10,25,11,00,11.40
2010,10,25,11,01,11.40
2010,10,25,11,02,11.40
2010,10,25,11,03,11.40
2010,10,25,11,04,11.40
2010,10,25,11,05,11.40
2010,10,25,11,06,11.40
2010,10,25,11,07,11.40
2010,10,25,11,08,11.40
2010,10,25,11,09,11.40
2010,10,25,11,10,11.40
2010,10,25,11,11,11.40
2010,10,25,11,12,11.40
2010,10,25,11,13,11.40
2010,10,25,11,14,11.40
2010,10,25,11,15,11.30
2010,10,25,11,16,11.30
2010,10,25,11,17,11.30
2010,10,25,11,18,11.30
2010,10,25,11,19,11.30
2010,10,25,11,20,11.30
2010,10,25,11,21,11.30
2010,10,25,11,22,11.30
2010,10,25,11,23,11.30
2010,10,25,11,24,11.30
2010,10,25,11,25,11.30
2010,10,25,11,26,11.30
2010,10,25,11,27,11.30
2010,10,25,11,28,11.30
2010,10,25,11,29,11.30
2010,10,25,11,30,11.30
2010,10,25,11,31,11.30
2010,10,25,11,32,11.30
2010,10,25,11,33,11.30
2010,10,25,11,34,11.30
2010,10,25,11,35,11.30
2010,10,25,11,36,11.30
2010,10,25,11,37,11.30
2010,10,25,11,38,11.30
2010,10,25,11,39,11.30
2010,10,25,11,40,11.30
2010,10,25,11,41,11.30
2010,10,25,11,42,11.30
2010,10,25,11,43,11.30
2010,10,25,11,44,11.30
2010,10,25,11,45,11.30
2010,10,25,11,46,11.30
2010,10,25,11,47,11.30
2010,10,25,11,48,11.30
2010,10,25,11,49,11.30
2010,10,25,11,50,11.30
2010,10,25,11,51,11.30
2010,10,25,11,52,11.30
2010,10,25,11,53,11.30
2010,10,25,11,54,11.30
2010,10,25,11,55,11.30
2010,10,25,11,56,11.30
2010,10,25,11,57,11.30
2010,10,25,11,58,11.30
2010,10,25,11,59,11.30
2010,10,25,12,00,11.30
2010,10,25,12,01,11.30
2010,10,25,12,02,11.30
2010,10,25,12,03,11.30
2010,10,25,12,04,11.30
2010,10,25,12,05,11.40
2010,10,25,12,06,11.30
2010,10,25,12,07,11.40
2010,10,25,12,08,11.30
2010,10,25,12,09,11.30
2010,10,25,12,10,11.30
2010,10,25,12,11,11.40
2010,10,25,12,12,11.40
2010,10,25,12,13,11.40
2010,10,25,12,14,11.40
2010,10,25,12,15,11.40
2010,10,25,12,16,11.40
2010,10,25,12,17,11.40
2010,10,25,12,18,11.40
2010,10,25,12,19,11.40
2010,10,25,12,20,11.40
2010,10,25,12,21,11.40
2010,10,25,12,22,11.40
2010,10,25,12,23,11.40
2010,10,25,12,24,11.40
2010,10,25,12,25,11.40
2010,10,25,12,26,11.40
2010,10,25,12,27,11.40
2010,10,25,12,28,11.40
2010,10,25,12,29,11.40
2010,10,25,12,30,11.40
2010,10,25,12,31,11.40
2010,10,25,12,32,11.40
2010,10,25,12,33,11.40
2010,10,25,12,34,11.40
2010,10,25,12,35,11.40
2010,10,25,12,36,11.40
2010,10,25,12,37,11.40
2010,10,25,12,38,11.40
2010,10,25,12,39,11.40
2010,10,25,12,40,11.40
2010,10,25,12,41,11.40
2010,10,25,12,42,11.40
2010,10,25,12,43,11.40
2010,10,25,12,44,11.40
2010,10,25,12,45,11.40
2010,10,25,12,46,11.40
2010,10,25,12,47,11.40
2010,10,25,12,48,11.40
2010,10,25,12,49,11.40
2010,10,25,12,50,11.40
2010,10,25,12,51,11.40
2010,10,25,12,52,11.40
2010,10,25,12,53,11.40
2010,10,25,12,54,11.40
2010,10,25,12,55,11.40
2010,10,25,12,56,11.40
2010,10,25,12,57,11.40
2010,10,25,12,58,11.40
2010,10,25,12,59,11.40
2010,10,25,13,00,11.40
2010,10,25,13,01,11.40
2010,10,25,13,02,11.40
2010,10,25,13,03,11.40
2010,10,25,13,04,11.40
2010,10,25,13,05,11.40
2010,10,25,13,06,11.50
2010,10,25,13,07,11.50
2010,10,25,13,08,11.50
2010,10,25,13,09,11.50
2010,10,25,13,10,11.50
2010,10,25,13,11,11.50
2010,10,25,13,12,11.50
2010,10,25,13,13,11.60
2010,10,25,13,14,11.60
2010,10,25,13,15,11.60
2010,10,25,13,16,11.60
2010,10,25,13,17,11.60
2010,10,25,13,18,11.60
2010,10,25,13,19,11.60
2010,10,25,13,20,11.60
2010,10,25,13,21,11.60
2010,10,25,13,22,11.60
2010,10,25,13,23,11.60
2010,10,25,13,24,11.60
2010,10,25,13,25,11.60
2010,10,25,13,26,11.60
2010,10,25,13,27,11.60
2010,10,25,13,28,11.60
2010,10,25,13,29,11.60
2010,10,25,13,30,11.60
2010,10,25,13,31,11.60
2010,10,25,13,32,11.60
2010,10,25,13,33,11.60
2010,10,25,13,34,11.60
2010,10,25,13,35,11.60
2010,10,25,13,36,11.60
2010,10,25,13,37,11.60
2010,10,25,13,38,11.60
2010,10,25,13,39,11.60
2010,10,25,13,40,11.60
2010,10,25,13,41,11.60
2010,10,25,13,42,11.60
2010,10,25,13,43,11.60
2010,10,25,13,44,11.60
2010,10,25,13,45,11.60
2010,10,25,13,46,11.60
2010,10,25,13,47,11.60
2010,10,25,13,48,11.70
2010,10,25,13,49,11.70
2010,10,25,13,50,11.70
2010,10,25,13,51,11.70
2010,10,25,13,52,11.70
2010,10,25,13,53,11.70
2010,10,25,13,54,11.70
2010,10,25,13,55,11.70
2010,10,25,13,56,11.70
2010,10,25,13,57,11.70
2010,10,25,13,58,11.70
2010,10,25,13,59,11.70
2010,10,25,14,00,11.70
2010,10,25,14,01,11.70
2010,10,25,14,02,11.80
2010,10,25,14,03,11.80
2010,10,25,14,04,11.80
2010,10,25,14,05,11.80
2010,10,25,14,06,11.80
2010,10,25,14,07,11.80
2010,10,25,14,08,11.80
2010,10,25,14,09,11.90
2010,10,25,14,10,11.90
2010,10,25,14,11,11.90
2010,10,25,14,12,11.90
2010,10,25,14,13,11.90
2010,10,25,14,14,11.90
2010,10,25,14,15,11.90
2010,10,25,14,16,11.90
2010,10,25,14,17,11.80
2010,10,25,14,18,11.80
2010,10,25,14,19,11.80
2010,10,25,14,20,11.80
2010,10,25,14,21,11.80
2010,10,25,14,22,11.80
2010,10,25,14,23,11.80
2010,10,25,14,24,11.80
2010,10,25,14,25,11.80
2010,10,25,14,26,11.70
2010,10,25,14,27,11.70
2010,10,25,14,28,11.70
2010,10,25,14,29,11.70
2010,10,25,14,30,11.70
2010,10,25,14,31,11.70
2010,10,25,14,32,11.70
2010,10,25,14,33,11.70
2010,10,25,14,34,11.70
2010,10,25,14,35,11.70
2010,10,25,14,36,11.70
2010,10,25,14,37,11.60
2010,10,25,14,38,11.60
2010,10,25,14,39,11.60
2010,10,25,14,40,11.60
2010,10,25,14,41,11.60
2010,10,25,14,42,11.60
2010,10,25,14,43,11.60
2010,10,25,14,44,11.60
2010,10,25,14,45,11.60
2010,10,25,14,46,11.50
2010,10,25,14,47,11.50
2010,10,25,14,48,11.50
2010,10,25,14,49,11.50
2010,10,25,14,50,11.50
2010,10,25,14,51,11.50
2010,10,25,14,52,11.50
2010,10,25,14,53,11.50
2010,10,25,14,54,11.50
2010,10,25,14,55,11.40
2010,10,25,14,56,11.40
2010,10,25,14,57,11.40
2010,10,25,15,00,11.40
2010,10,25,15,01,11.40
2010,10,25,15,02,11.40
2010,10,25,15,03,11.40
2010,10,25,15,04,11.40
2010,10,25,15,05,11.40
2010,10,25,15,06,11.40
2010,10,25,15,07,11.40
2010,10,25,15,08,11.40
2010,10,25,15,09,11.30
2010,10,25,15,10,11.30
2010,10,25,15,11,11.30
2010,10,25,15,12,11.30
2010,10,25,15,13,11.30
2010,10,25,15,14,11.20
2010,10,25,15,15,11.20
2010,10,25,15,16,11.20
2010,10,25,15,17,11.20
2010,10,25,15,18,11.20
2010,10,25,15,19,11.20
2010,10,25,15,20,11.20
2010,10,25,15,21,11.20
2010,10,25,15,22,11.20
2010,10,25,15,23,11.10
2010,10,25,15,26,11.10
2010,10,25,15,27,11.10
2010,10,25,15,28,11.10
2010,10,25,15,29,11.10
2010,10,25,15,30,11.10
2010,10,25,15,31,11.20
2010,10,25,15,32,11.20
2010,10,25,15,33,11.20
2010,10,25,15,34,11.20
2010,10,25,15,35,11.20
2010,10,25,15,36,11.20
2010,10,25,15,37,11.20
2010,10,25,15,38,11.20
2010,10,25,15,39,11.20
2010,10,25,15,40,11.20
2010,10,25,15,41,11.30
2010,10,25,15,42,11.30
2010,10,25,15,43,11.30
2010,10,25,15,44,11.30
2010,10,25,15,45,11.20
2010,10,25,15,46,11.20
2010,10,25,15,47,11.20
2010,10,25,15,48,11.20
2010,10,25,15,49,11.20
2010,10,25,15,50,11.20
2010,10,25,15,51,11.20
2010,10,25,15,52,11.20
2010,10,25,15,53,11.20
2010,10,25,15,54,11.20
2010,10,25,15,55,11.20
2010,10,25,15,56,11.20
2010,10,25,15,57,11.20
2010,10,25,15,58,11.20
2010,10,25,15,59,11.20
2010,10,25,16,00,11.20
2010,10,25,16,01,11.20
2010,10,25,16,02,11.20
2010,10,25,16,03,11.20
2010,10,25,16,04,11.20
2010,10,25,16,05,11.20
2010,10,25,16,06,11.20
2010,10,25,16,07,11.20
2010,10,25,16,08,11.20
2010,10,25,16,09,11.20
2010,10,25,16,10,11.20
2010,10,25,16,11,11.20
2010,10,25,16,12,11.20
2010,10,25,16,13,11.20
2010,10,25,16,14,11.20
2010,10,25,16,15,11.20
2010,10,25,16,16,11.20
2010,10,25,16,17,11.20
2010,10,25,16,18,11.10
2010,10,25,16,19,11.10
2010,10,25,16,20,11.10
2010,10,25,16,23,11.10
2010,10,25,16,24,11.10
2010,10,25,16,25,11.00
2010,10,25,16,26,11.00
2010,10,25,16,27,11.00
2010,10,25,16,28,10.90
2010,10,25,16,29,10.90
2010,10,25,16,30,10.90
2010,10,25,16,31,10.90
2010,10,25,16,32,10.90
2010,10,25,16,33,10.90
2010,10,25,16,34,10.90
2010,10,25,16,35,10.80
2010,10,25,16,36,10.80
2010,10,25,16,37,10.80
2010,10,25,16,38,10.90
2010,10,25,16,39,10.90
2010,10,25,16,40,10.90
2010,10,25,16,41,11.00
2010,10,25,16,42,11.00
2010,10,25,16,43,11.00
2010,10,25,16,44,11.00
2010,10,25,16,45,11.00
2010,10,25,16,46,11.00
2010,10,25,16,47,11.00
2010,10,25,16,48,10.90
2010,10,25,16,49,10.90
2010,10,25,16,50,10.90
2010,10,25,16,51,10.90
2010,10,25,16,52,10.90
2010,10,25,16,53,10.90
2010,10,25,16,54,10.80
2010,10,25,16,55,10.80
2010,10,25,16,56,10.80
2010,10,25,16,57,10.80
2010,10,25,16,58,10.80
2010,10,25,16,59,10.80
2010,10,25,17,00,10.70
2010,10,25,17,01,10.70
2010,10,25,17,02,10.70
2010,10,25,17,03,10.70
2010,10,25,17,04,10.70
2010,10,25,17,05,10.70
2010,10,25,17,06,10.70
2010,10,25,17,07,10.70
2010,10,25,17,08,10.70
2010,10,25,17,09,10.70
2010,10,25,17,10,10.70
2010,10,25,17,11,10.70
2010,10,25,17,12,10.70
2010,10,25,17,13,10.70
2010,10,25,17,14,10.70
2010,10,25,17,15,10.70
2010,10,25,17,16,10.70
2010,10,25,17,17,10.70
2010,10,25,17,18,10.80
2010,10,25,17,19,10.80
2010,10,25,17,20,10.80
2010,10,25,17,21,10.80
2010,10,25,17,22,10.70
2010,10,25,17,23,10.70
2010,10,25,17,24,10.70
2010,10,25,17,25,10.70
2010,10,25,17,26,10.70
2010,10,25,17,27,10.60
2010,10,25,17,28,10.60
2010,10,25,17,29,10.60
2010,10,25,17,30,10.60
2010,10,25,17,31,10.60
2010,10,25,17,32,10.50
2010,10,25,17,33,10.50
2010,10,25,17,34,10.50
2010,10,25,17,35,10.50
2010,10,25,17,36,10.40
2010,10,25,17,37,10.40
2010,10,25,17,38,10.40
2010,10,25,17,39,10.40
2010,10,25,17,40,10.40
2010,10,25,17,41,10.40
2010,10,25,17,42,10.40
2010,10,25,17,43,10.30
2010,10,25,17,44,10.30
2010,10,25,17,45,10.30
2010,10,25,17,46,10.20
2010,10,25,17,47,10.20
2010,10,25,17,48,10.20
2010,10,25,17,49,10.20
2010,10,25,17,50,10.10
2010,10,25,17,51,10.10
2010,10,25,17,52,10.10
2010,10,25,17,53,10.10
2010,10,25,17,54,10.10
2010,10,25,17,55,10.00
2010,10,25,17,56,10.00
2010,10,25,17,57,10.00
2010,10,25,17,58,10.00
2010,10,25,17,59,9.90
2010,10,25,18,00,9.90
2010,10,25,18,01,10.00
2010,10,25,18,02,10.00
2010,10,25,18,03,10.00
2010,10,25,18,04,10.00
2010,10,25,18,05,10.10
2010,10,25,18,06,10.10
2010,10,25,18,07,10.10
2010,10,25,18,08,10.10
2010,10,25,18,09,10.10
2010,10,25,18,10,10.10
2010,10,25,18,13,10.10
2010,10,25,18,14,10.10
2010,10,25,18,15,10.10
2010,10,25,18,16,10.10
2010,10,25,18,17,10.10
2010,10,25,18,18,10.10
2010,10,25,18,19,10.10
2010,10,25,18,23,10.10
2010,10,25,18,24,10.10
2010,10,25,18,25,10.00
2010,10,25,18,26,10.00
2010,10,25,18,27,10.00
2010,10,25,18,28,10.00
2010,10,25,18,29,10.00
2010,10,25,18,30,10.00
2010,10,25,18,31,10.00
2010,10,25,18,32,10.00
2010,10,25,18,33,10.00
2010,10,25,18,34,10.00
2010,10,25,18,35,10.00
2010,10,25,18,36,10.00
2010,10,25,18,37,9.90
2010,10,25,18,38,9.90
2010,10,25,18,39,9.90
2010,10,25,18,40,9.90
2010,10,25,18,41,9.80
2010,10,25,18,42,9.80
2010,10,25,18,43,9.80
2010,10,25,18,44,9.80
2010,10,25,18,45,9.80
2010,10,25,18,46,9.70
2010,10,25,18,47,9.70